Temp
15 14 14 14 14 13 13 13 13 12 12 12 12 11 11 11 11 10 10 10 10 10 10 10 10 10 10 10 10 10 10 10 10 10 9 9 9 9 9 9 9 9 9 9 9 8 8 8 8 7 7 7 6 6 6 6 5 5 5 5 5 5 4 4 4 4 4 4 4
14 14 14 14 14 13 13 13 12 12 12 12 11 11 11 11 11 10 10 10 10 10 10 10 10 10 10 10 9 9 9 9 9 9 9 9 9 9 9 9 9 9 9 8 8 8 8 7 7 7 6 6 6 6 5 5 5 5 5 4 4 4 4 4 4 4 4 4 4
14 14 14 14 13 13 13 13 12 12 12 11 11 11 11 11 10 10 10 10 10 10 10 10 10 9 9 9 9 9 9 9 9 9 9 9 9 9 9 9 9 8 8 8 7 7 7 7 6 6 6 5 5 5 5 5 4 4 4 4 4 4 4 3 3 3 3 3 3
14 14 14 14 13 13 13 12 12 12 11 11 11 11 11 10 10 10 10 10 10 10 9 9 9 9 9 9 9 9 9 9 9 9 9 9 9 9 8 8 8 8 7 7 7 7 6 6 6 5 5 5 5 5 4 4 4 4 4 3 3 3 3 3 3 3 3 3 3
14 14 14 13 13 13 12 12 12 11 11 11 11 11 10 10 10 10 10 10 10 9 9 9 9 9 9 9 9 9 9 9 9 9 9 9 8 8 8 8 7 7 7 7 6 6 6 5 5 5 5 4 4 4 4 4 3 3 3 3 3 3 3 3 3 3 2 2 2
14 14 13 13 13 12 12 12 11 11 11 11 11 11 10 10 10 10 10 10 9 9 9 9 9 9 9 9 9 9 9 9 9 8 8 8 8 8 7 7 7 6 6 6 6 5 5 5 5 4 4 4 4 4 3 3 3 3 3 3 3 2 2 2 2 2 2 2 2
14 13 13 13 12 12 12 12 11 11 11 11 11 11 10 10 10 10 10 9 9 9 9 9 9 9 9 9 9 9 9 9 8 8 8 7 7 7 7 6 6 6 6 5 5 5 5 4 4 4 4 4 3 3 3 3 3 3 3 2 2 2 2 2 2 2 2 2 2
13 13 13 12 12 12 12 11 11 11 11 11 11 10 10 10 10 10 9 9 9 9 9 9 9 9 9 9 9 9 8 8 8 7 7 7 6 6 6 6 5 5 5 5 4 4 4 4 4 4 3 3 3 3 3 3 3 3 2 2 2 2 2 2 2 2 2 2 2
13 13 12 12 12 12 12 11 11 11 11 11 10 10 10 10 10 10 10 10 10 10 10 9 9 9 9 9 8 8 8 7 7 7 6 6 6 6 5 5 5 5 4 4 4 4 4 4 3 3 3 3 3 3 3 3 2 2 2 2 2 2 2 2 2 2 2 1 1
13 13 12 12 12 12 11 11 11 11 11 10 10 10 10 10 10 10 10 10 10 10 9 9 9 9 9 8 8 7 7 7 6 6 6 6 5 5 5 5 4 4 4 4 4 4 3 3 3 3 3 3 3 3 3 2 2 2 2 2 2 2 2 2 2 1 1 1 1
13 12 12 12 12 11 11 11 11 11 10 10 10 10 10 10 10 10 10 10 10 9 9 9 9 8 8 8 7 7 7 6 6 6 5 5 5 5 4 4 4 4 4 4 4 3 3 3 3 3 3 3 3 2 2 2 2 2 2 2 2 2 1 1 1 1 1 1 1
12 12 12 12 11 11 11 11 11 11 10 10 10 10 10 10 10 10 10 9 9 9 9 8 8 8 7 7 7 6 6 6 5 5 5 5 5 4 4 4 4 4 4 4 3 3 3 3 3 3 3 3 2 2 2 2 2 2 2 2 1 1 1 1 1 1 1 1 1
12 12 12 11 11 11 11 11 11 10 10 10 10 10 10 10 10 10 9 9 9 9 8 8 8 7 7 7 6 6 6 5 5 5 5 5 4 4 4 4 4 4 4 3 3 3 3 3 3 3 2 2 2 2 2 2 2 2 1 1 1 1 1 1 1 1 1 1 1
12 12 11 11 11 11 11 11 10 10 10 10 10 10 10 10 9 9 9 9 8 8 8 8 7 7 6 6 6 6 5 5 5 5 5 4 4 4 4 4 4 4 3 3 3 3 3 3 2 2 2 2 2 2 2 2 2 1 1 1 1 1 1 1 1 1 1 1 1
12 11 11 11 11 11 11 10 10 10 10 10 10 10 10 9 9 9 9 8 8 8 7 7 7 6 6 6 6 5 5 5 5 5 4 4 4 4 4 4 4 3 3 3 3 3 3 2 2 2 2 2 2 2 2 2 2 1 1 1 1 1 1 1 1 1 1 1 1
11 11 11 11 11 11 10 10 10 10 10 10 10 9 9 9 9 8 8 8 8 7 7 7 6 6 6 6 5 5 5 5 5 5 4 4 4 4 4 4 3 3 3 3 3 3 2 2 2 2 2 2 2 2 2 1 1 1 1 1 1 1 1 1 1 1 1 1 1
11 11 11 11 10 10 10 10 10 10 10 10 9 9 9 9 8 8 8 7 7 7 7 6 6 6 6 5 5 5 5 5 5 4 4 4 4 4 4 3 3 3 3 3 3 2 2 2 2 2 2 2 2 1 1 1 1 1 1 1 1 1 1 1 1 1 1 1 1
11 11 10 10 10 10 10 10 10 10 9 9 9 9 8 8 8 8 7 7 7 6 6 6 6 6 5 5 5 5 5 5 4 4 4 4 4 4 3 3 3 3 3 2 2 2 2 2 2 2 2 2 1 1 1 1 1 1 1 1 1 1 1 1 1 1 1 1 1
11 10 10 10 10 10 10 10 10 9 9 9 9 8 8 8 8 7 7 7 6 6 6 6 6 5 5 5 5 5 5 4 4 4 4 4 4 3 3 3 3 3 2 2 2 2 2 2 2 2 1 1 1 1 1 1 1 1 1 1 1 1 1 1 1 1 1 1 1
10 10 10 10 10 10 10 10 9 9 9 8 8 8 8 8 7 7 7 6 6 6 6 6 5 5 5 5 5 5 5 4 4 4 4 4 3 3 3 3 3 2 2 2 2 2 2 2 2 1 1 1 1 1 1 1 1 1 1 1 1 1 1 1 1 1 1 1 1
10 10 10 10 10 10 9 9 9 9 8 8 8 8 8 7 7 7 6 6 6 6 6 5 5 5 5 5 5 5 4 4 4 4 4 3 3 3 3 3 2 2 2 2 2 2 2 1 1 1 1 1 1 1 1 1 1 1 1 1 1 1 1 1 1 1 1 1 1
10 10 10 9 9 9 9 9 9 8 8 8 8 7 7 7 7 6 6 6 6 6 5 5 5 5 5 5 4 4 4 4 4 4 3 3 3 3 3 2 2 2 2 2 2 2 1 1 1 1 1 1 1 1 1 1 1 1 1 1 1 1 1 1 1 1 1 1 1
10 9 9 9 9 9 9 9 8 8 8 8 7 7 7 7 6 6 6 6 6 6 5 5 5 5 5 4 4 4 4 4 4 3 3 3 3 3 2 2 2 2 2 2 1 1 1 1 1 1 1 1 1 1 1 1 1 1 1 1 1 1 1 1 1 1 1 1 1
9 9 9 9 9 9 9 8 8 8 8 7 7 7 7 6 6 6 6 6 6 5 5 5 5 5 4 4 4 4 4 3 3 3 3 3 3 2 2 2 2 2 2 1 1 1 1 1 1 1 1 1 1 1 1 1 1 1 1 1 1 1 1 1 1 1 1 1 0
9 9 9 9 9 9 8 8 8 8 7 7 7 7 6 6 6 6 6 5 5 5 5 5 5 4 4 4 4 4 3 3 3 3 3 3 2 2 2 2 2 2 1 1 1 1 0 1 1 1 1 1 1 1 1 1 1 1 1 1 1 1 1 1 1 1 0 0 0
9 9 9 9 9 9 8 8 8 7 7 7 7 6 6 6 6 6 5 5 5 5 5 4 4 4 4 4 4 3 3 3 3 3 2 2 2 2 2 2 1 1 1 1 1 0 0 1 1 1 1 1 1 1 1 1 1 1 1 1 1 1 1 1 0 0 0 0 0
9 9 9 9 9 8 8 8 7 7 7 7 6 6 6 6 6 5 5 5 5 5 4 4 4 4 4 4 3 3 3 3 3 2 2 2 2 2 2 1 1 1 1 1 0 0 0 1 1 1 1 1 1 1 1 1 1 1 1 1 1 1 1 0 0 0 0 0 0
9 9 9 9 8 8 8 7 7 7 7 6 6 6 6 6 5 5 5 5 5 4 4 4 4 4 4 3 3 3 3 3 2 2 2 2 2 2 1 1 1 1 1 1 0 0 0 1 1 1 1 1 1 1 1 1 1 1 1 1 1 1 0 0 0 0 -0 -0 -0
9 9 8 8 8 8 7 7 7 7 6 6 6 6 6 5 5 5 5 5 4 4 4 4 4 3 3 3 3 3 3 3 2 2 2 2 1 1 1 1 1 1 1 0 0 0 0 1 1 1 1 1 1 1 1 1 1 1 1 0 0 0 0 0 0 -0 -0 -0 -0
9 8 8 8 8 7 7 7 7 6 6 6 6 5 5 5 5 5 5 4 4 4 4 4 3 3 3 3 3 3 3 2 2 2 2 1 1 1 1 1 1 1 1 0 0 0 0 1 1 1 1 1 1 1 1 1 1 0 0 0 0 0 0 0 -0 -0 -0 -0 -1
8 8 8 7 7 7 7 7 6 6 6 6 5 5 5 5 5 5 4 4 4 4 4 3 3 3 3 3 3 3 2 2 2 2 2 1 1 1 1 1 1 1 0 0 -0 0 0 0 1 1 1 1 1 1 1 0 0 0 0 0 -0 -0 -0 -0 -0 -0 -1 -1 -1
8 8 7 7 7 7 7 6 6 6 6 5 5 5 5 5 4 4 4 4 4 3 3 3 3 3 3 3 2 2 2 2 2 2 1 1 1 1 1 1 1 0 0 -0 -0 0 0 0 0 0 1 1 1 0 0 0 0 -0 -0 -0 -0 -0 -0 -0 -0 -1 -1 -1 -1
8 7 7 7 7 6 6 6 6 6 5 5 5 5 5 4 4 4 4 4 3 3 3 3 3 3 3 2 2 2 2 2 2 1 1 1 1 1 1 0 0 0 0 -0 -0 -0 0 0 0 0 0 0 0 0 0 -0 -0 -0 -0 -0 -0 -0 -0 -1 -1 -1 -1 -1 -1
7 7 7 7 6 6 6 6 6 5 5 5 5 5 4 4 4 4 4 4 3 3 3 3 3 3 2 2 2 2 2 2 1 1 1 1 1 1 0 0 0 0 -0 -0 -0 -0 -0 -0 0 0 0 0 0 -0 -0 -0 -0 -0 -0 -0 -1 -1 -1 -1 -1 -1 -1 -1 -1
7 7 6 6 6 6 6 6 5 5 5 5 5 4 4 4 4 4 4 3 3 3 3 3 3 2 2 2 2 2 2 1 1 1 1 1 1 0 0 0 0 0 -0 -0 -1 -0 -0 -0 -0 -0 -0 -0 -0 -0 -0 -0 -0 -0 -1 -1 -1 -1 -1 -1 -1 -1 -1 -1 -1
7 6 6 6 6 6 6 5 5 5 5 5 4 4 4 4 4 4 3 3 3 3 3 3 2 2 2 2 2 2 1 1 1 1 1 1 0 0 0 0 0 0 -0 -0 -1 -1 -1 -0 -0 -0 -0 -0 -0 -0 -0 -0 -0 -1 -1 -1 -1 -1 -1 -1 -1 -2 -2 -2 -1
6 6 6 6 6 6 5 5 5 5 5 4 4 4 4 4 3 3 3 3 3 3 2 2 2 2 2 2 2 2 1 1 1 1 1 1 0 0 -0 -0 -0 -0 -0 -0 -1 -1 -1 -1 -0 -0 -0 -0 -0 -0 -0 -0 -1 -1 -1 -1 -1 -1 -2 -2 -2 -2 -2 -2 -2
6 6 6 6 5 5 5 5 5 5 4 4 4 4 4 3 3 3 3 3 3 2 2 2 2 2 2 2 2 1 1 1 1 1 1 0 0 0 -0 -0 -0 -0 -0 -1 -1 -1 -1 -1 -1 -1 -0 -0 -0 -0 -0 -1 -1 -1 -1 -1 -2 -2 -2 -2 -2 -2 -2 -2 -2
6 6 6 5 5 5 5 5 5 4 4 4 4 4 3 3 3 3 3 3 2 2 2 2 2 2 2 2 1 1 1 1 1 1 1 0 0 -0 -0 -1 -1 -1 -1 -1 -1 -1 -1 -1 -1 -1 -0 -0 -0 -0 -0 -1 -1 -1 -1 -2 -2 -2 -2 -2 -2 -2 -2 -2 -2
6 6 5 5 5 5 5 4 4 4 4 4 4 3 3 3 3 3 3 2 2 2 2 2 2 2 2 1 1 1 1 1 1 1 1 0 0 -0 -0 -1 -1 -1 -1 -1 -1 -1 -1 -1 -1 -1 -0 -0 -0 -0 -1 -1 -1 -1 -2 -2 -2 -2 -2 -2 -2 -2 -2 -2 -2
5 5 5 5 5 5 4 4 4 4 4 4 3 3 3 3 3 3 3 2 2 2 2 2 2 2 1 1 1 1 1 1 1 1 1 0 0 -0 -0 -1 -1 -1 -1 -1 -1 -1 -1 -1 -1 -1 -0 -0 -0 -0 -1 -1 -1 -1 -2 -2 -2 -2 -2 -2 -2 -2 -2 -2 -2
Height
848 848 849 850 850 851 851 852 852 852 852 852 852 852 852 852 852 852 852 852 852 852 851 851 851 851 850 850 850 849 849 848 848 848 847 847 846 846 845 845 844 843 842 842 841 840 839 838 837 837 836 835 834 834 833 832 832 831 830 830 829 828 827 827 826 826 825 824 824
847 847 848 849 849 850 850 851 851 851 851 851 851 851 851 851 851 851 851 851 851 851 851 850 850 850 850 849 849 848 848 847 847 847 846 846 845 845 844 843 843 842 841 841 840 839 838 837 836 835 834 834 833 832 832 831 831 830 829 828 827 827 826 825 825 824 823 823 822
846 847 847 848 849 849 849 850 850 850 850 850 850 851 851 851 851 851 850 850 850 850 850 850 850 849 849 849 848 848 847 847 846 846 845 845 844 844 843 842 842 841 840 839 838 837 837 836 835 834 833 832 832 831 830 830 829 829 828 827 826 826 825 824 823 823 822 821 821
845 846 847 847 848 848 849 849 849 849 849 849 849 850 850 850 850 850 850 850 849 849 849 849 849 848 848 848 847 847 846 846 845 845 844 844 843 842 842 841 840 839 839 838 837 836 836 835 834 833 832 831 830 830 829 828 828 827 827 826 825 824 823 823 822 821 821 820 819
845 845 846 847 847 847 848 848 848 848 848 848 849 849 849 849 849 849 849 849 849 849 848 848 848 847 847 847 846 846 845 845 844 843 843 842 842 841 840 840 839 838 837 837 836 835 834 833 832 832 831 830 829 829 828 827 827 826 825 824 824 823 822 821 820 820 819 818 817
844 844 845 846 846 847 847 847 847 847 847 847 848 848 848 848 848 848 848 848 848 848 847 847 847 847 846 846 845 845 844 844 843 842 842 841 841 840 839 838 838 837 837 836 835 834 833 832 831 831 830 829 828 827 827 826 826 824 823 823 822 822 821 820 819 818 817 816 816
843 844 844 845 846 846 846 846 846 847 847 847 847 847 847 847 847 847 847 847 847 847 847 846 846 845 845 844 844 843 843 842 842 841 841 840 839 839 838 837 837 836 835 835 834 833 832 831 830 829 828 828 827 826 826 825 824 823 822 821 820 820 819 818 817 816 816 814 814
842 843 843 844 845 845 845 845 845 846 846 846 846 846 846 846 846 846 846 846 846 846 845 845 845 844 844 843 843 842 842 841 841 840 840 839 838 838 837 837 836 835 834 833 832 832 831 830 829 828 827 827 826 825 824 824 823 822 821 820 818 818 817 817 815 815 814 813 812
842 842 843 843 844 844 844 844 845 845 845 845 845 845 845 845 845 845 845 845 845 845 844 844 843 843 843 842 842 841 841 840 840 839 838 838 837 837 836 835 834 834 833 832 831 830 829 828 828 827 826 825 824 823 823 822 821 820 819 818 817 816 815 815 814 813 812 811 810
841 841 842 842 843 843 843 844 844 844 844 844 844 844 844 844 844 844 844 844 844 844 843 843 842 842 842 841 841 840 840 839 839 838 837 837 836 836 835 834 833 832 831 831 830 829 828 827 826 825 825 824 823 822 821 821 820 818 817 817 815 814 813 812 812 811 810 809 808
840 840 841 842 842 842 842 843 843 843 843 843 843 843 843 843 843 843 843 843 843 842 842 842 842 841 841 840 840 839 839 838 837 837 836 836 835 834 833 833 832 831 830 829 828 827 827 825 824 824 823 822 822 821 820 819 818 817 816 815 814 813 812 811 810 809 809 807 807
839 840 840 841 841 842 842 842 842 842 842 842 842 842 842 842 842 842 842 842 842 842 841 841 840 840 839 839 838 838 837 837 836 836 835 834 833 833 832 831 830 829 828 827 827 826 825 824 823 822 821 820 820 819 818 817 816 815 814 813 812 811 810 809 808 807 807 806 805
838 839 839 840 840 841 841 841 841 841 842 842 842 842 842 842 842 841 841 841 841 840 840 840 839 839 838 838 837 837 836 836 835 834 833 833 832 831 830 830 829 828 827 826 825 824 823 822 822 821 819 818 818 817 816 816 814 813 812 811 810 809 808 807 807 806 805 804 803
838 838 839 839 839 840 840 840 840 841 841 841 841 841 841 841 841 840 840 840 839 839 839 838 838 838 837 837 836 836 835 834 834 833 832 831 831 830 829 828 827 826 825 824 824 823 822 821 820 819 818 817 816 815 815 814 813 812 811 810 808 807 807 806 805 804 803 802 801
837 837 838 838 838 839 839 839 839 840 840 840 840 840 840 840 839 839 839 839 838 838 837 837 837 837 836 836 835 834 834 833 832 831 830 830 829 828 827 826 826 825 824 823 822 821 820 819 818 817 817 815 814 813 813 812 811 810 809 808 807 806 805 804 803 802 802 801 799
836 837 837 837 837 838 838 838 838 838 839 839 839 839 839 839 838 838 838 837 837 837 837 836 836 835 835 834 834 833 832 831 831 830 829 828 827 827 826 825 824 823 822 821 820 819 819 818 817 816 815 814 812 812 811 810 809 808 807 807 806 804 803 802 802 801 800 799 798
835 836 836 836 837 837 837 837 837 837 838 838 838 838 838 837 837 837 837 836 836 836 835 835 834 834 833 833 832 832 831 830 829 828 827 827 826 825 824 823 822 822 821 820 818 817 817 816 815 814 813 812 811 810 809 808 807 807 806 805 804 802 802 801 800 799 798 797 796
834 835 835 835 836 836 836 836 837 837 837 837 837 837 837 836 836 836 835 835 835 834 834 833 833 832 832 831 831 830 829 828 827 827 826 825 824 823 822 822 821 820 819 818 817 816 815 814 813 812 812 811 809 808 807 807 806 804 803 802 802 801 800 799 798 797 796 795 794
833 834 834 834 835 835 835 836 836 836 836 836 836 836 835 835 835 834 834 834 834 833 832 832 832 831 831 830 829 828 828 827 826 825 824 823 822 822 821 820 819 818 817 816 815 814 813 812 812 811 810 808 807 807 806 805 803 802 802 801 799 798 797 797 796 795 794 793 792
833 833 833 834 834 834 834 835 835 835 835 835 834 834 834 834 833 833 833 833 832 832 832 831 830 830 829 828 827 827 826 825 824 823 822 822 821 820 819 818 817 816 816 815 814 813 812 811 810 809 807 807 805 804 803 802 802 800 799 798 797 796 795 794 794 793 792 791 790
832 832 832 833 833 833 834 834 834 834 834 833 833 833 833 832 832 832 832 832 831 831 830 830 829 828 827 827 826 825 824 823 823 822 821 820 819 818 817 817 816 815 814 813 812 811 810 809 808 807 806 804 803 802 801 800 799 798 797 796 795 794 793 792 792 791 790 789 788
831 832 832 832 832 832 833 833 833 832 832 832 832 832 832 831 831 831 831 830 830 829 829 828 827 827 826 825 824 823 822 822 821 820 819 818 817 817 816 815 814 813 812 811 810 809 808 807 806 805 804 802 801 800 799 798 797 796 795 794 793 792 791 790 789 789 788 787 786
831 831 831 831 832 832 832 832 832 831 831 831 831 831 830 830 830 830 829 829 829 828 827 827 826 825 825 824 823 822 821 820 819 818 817 817 816 815 814 813 812 812 810 809 808 807 806 805 804 803 802 801 800 799 798 797 795 794 793 792 791 790 789 788 787 787 786 785 784
830 830 830 831 831 831 831 830 830 830 830 830 830 829 829 829 829 828 828 828 827 827 826 826 825 824 823 822 821 820 819 818 817 816 816 815 814 813 812 812 811 810 809 808 807 806 805 804 802 801 800 800 798 797 796 795 794 793 792 790 789 788 787 786 786 785 784 783 782
829 829 829 830 830 829 829 829 829 829 829 829 828 828 828 828 827 827 827 827 826 826 825 824 823 822 821 820 819 818 817 817 815 814 813 813 812 812 811 810 809 808 807 806 806 805 804 803 802 801 799 798 797 796 795 794 793 792 790 789 787 786 785 784 783 783 782 782 781
828 828 828 828 828 828 828 828 828 828 827 827 827 827 827 827 826 826 826 825 824 824 823 822 821 820 819 818 817 817 816 815 814 813 812 811 811 810 809 808 807 807 806 805 804 803 802 802 801 800 798 797 796 794 793 792 791 790 789 787 786 785 784 782 781 781 780 779 779
827 827 827 827 827 827 827 827 827 827 827 826 826 826 826 825 825 825 824 823 823 822 821 821 820 818 817 817 816 815 814 813 812 812 811 810 809 808 807 807 806 805 804 803 802 802 801 800 799 798 797 795 794 793 791 790 789 788 787 786 784 783 782 781 780 779 778 777 777
826 826 826 826 826 826 826 826 825 825 825 825 825 825 824 824 824 823 822 822 821 820 819 819 818 817 816 815 814 813 812 812 811 810 809 808 807 807 806 805 804 803 802 802 801 800 799 798 797 796 795 794 792 791 790 788 787 786 785 784 783 782 781 780 778 777 776 775 774
825 825 825 824 824 824 824 824 824 824 824 824 824 823 823 822 822 822 821 820 819 818 818 817 816 815 814 813 812 811 811 810 809 808 807 807 806 805 804 803 802 801 801 800 799 798 797 796 795 794 793 792 791 790 788 787 785 784 783 782 781 780 779 778 777 776 775 773 772
823 823 823 823 823 823 823 823 823 823 823 822 822 822 822 821 821 820 819 818 817 817 816 815 814 813 812 811 811 810 809 808 807 807 806 805 804 803 802 802 801 800 799 798 797 797 796 795 794 793 792 791 789 788 787 785 784 782 781 780 779 778 777 776 775 774 773 772 771
822 822 822 822 822 822 822 822 822 822 822 821 821 821 820 820 819 818 817 817 816 815 814 813 812 811 810 810 809 808 807 806 806 805 804 803 802 802 801 800 799 798 797 797 796 795 794 793 792 791 790 789 787 786 785 783 782 781 780 778 777 777 776 775 773 772 772 771 769
821 821 821 821 821 821 821 821 821 820 820 820 819 819 818 818 817 817 816 815 814 813 812 811 810 809 808 808 807 806 806 805 804 803 803 802 801 800 799 798 797 796 796 795 794 793 792 791 790 789 788 787 786 784 783 782 780 779 778 777 776 775 774 773 772 771 770 769 768
820 820 819 819 819 819 819 819 819 819 819 818 818 817 817 816 816 815 814 813 812 812 811 810 809 808 807 806 805 804 804 803 802 802 801 800 799 798 797 796 795 795 794 793 792 792 791 789 788 787 786 785 784 782 781 780 779 777 776 775 774 773 772 772 771 770 768 767 767
818 818 818 818 818 818 818 818 818 817 817 817 816 816 815 815 814 813 812 812 811 810 809 808 807 806 805 805 804 803 802 802 801 800 799 798 798 797 796 794 793 793 792 792 791 790 789 788 787 785 784 783 782 780 779 778 777 776 774 773 772 772 771 770 769 768 767 766 765
817 817 817 817 817 817 817 817 816 816 816 815 815 814 814 813 812 811 811 810 809 808 807 806 805 805 804 803 802 802 801 800 799 798 798 797 796 795 794 792 792 791 791 790 789 788 787 786 785 784 782 781 780 779 777 776 775 773 772 772 770 770 769 768 767 766 765 764 763
816 816 816 816 815 815 815 815 815 814 814 813 813 812 812 811 810 810 809 808 807 806 805 804 804 803 802 801 801 800 799 798 797 797 796 795 794 793 792 791 790 789 789 788 787 786 785 784 783 782 781 779 778 777 776 774 773 772 771 770 769 768 767 766 765 764 763 762 760
815 815 814 814 814 814 814 814 813 813 812 812 812 811 810 809 808 808 807 806 805 804 803 802 802 801 800 800 799 798 797 797 796 795 794 793 793 792 790 789 788 787 787 786 785 784 783 782 781 780 779 778 776 775 774 772 771 770 769 768 767 766 765 764 763 762 760 759 758
813 813 813 813 812 812 812 812 812 811 811 810 810 809 808 807 807 806 805 805 804 802 802 801 800 799 799 798 797 796 796 795 794 793 792 792 791 790 789 787 786 785 785 784 783 782 782 781 780 779 778 776 775 774 772 771 770 768 767 766 765 763 763 762 760 759 757 757 755
812 812 812 812 811 811 811 811 810 810 809 808 808 807 807 806 805 804 803 803 802 801 800 799 798 797 797 797 796 794 794 793 792 792 791 790 789 788 787 786 784 783 783 782 782 781 780 779 778 777 776 775 774 772 771 769 768 767 765 764 762 761 760 759 758 757 755 754 753
811 811 811 810 810 810 810 809 809 808 807 807 806 805 805 804 803 802 802 801 800 799 798 797 797 796 795 795 794 793 792 791 791 790 789 788 787 787 786 784 783 782 781 781 780 779 778 777 776 775 774 773 772 771 770 768 767 765 764 762 761 759 757 756 756 754 753 751 750
810 809 809 809 809 808 808 807 807 806 806 805 804 803 803 802 801 800 800 799 798 797 797 796 795 794 794 793 792 791 790 789 788 788 787 786 785 784 784 782 781 780 779 778 778 777 776 775 775 774 773 772 771 769 768 767 765 763 762 760 759 757 756 754 753 752 751 749 748
Wind_Speed
12 11 10 8 8 8 8 8 8 7 7 6 6 6 6 5 5 5 5 5 6 7 7 8 9 9 10 11 11 12 12 13 13 13 14 14 15 15 16 17 17 18 19 20 21 22 23 23 24 25 25 25 25 26 25 25 25 24 24 24 24 23 23 23 23 23 23 23 23
12 11 10 9 8 9 9 8 8 7 7 6 6 6 6 5 5 5 5 5 6 7 8 9 9 10 11 11 12 12 13 13 13 14 14 15 15 16 17 18 18 19 20 21 22 22 23 24 24 25 25 25 25 25 25 25 24 24 24 24 23 23 23 23 23 23 23 23 23
11 11 10 9 9 9 9 8 8 7 6 6 6 6 6 5 5 5 5 6 7 8 8 9 10 11 12 12 12 12 13 13 14 14 15 16 16 17 18 19 19 20 21 21 22 22 23 23 24 24 24 25 25 25 25 24 24 23 23 23 23 23 23 23 23 23 23 23 23
11 11 10 10 9 9 8 8 7 7 6 6 6 6 5 5 5 5 6 7 7 8 9 10 11 12 12 12 13 13 13 14 15 15 16 17 18 18 19 20 20 21 21 21 22 22 22 23 23 23 24 24 25 25 24 24 23 23 23 23 23 23 23 23 23 23 23 23 23
12 11 10 10 9 9 8 8 7 7 7 6 6 5 5 5 5 6 7 7 8 9 10 11 12 12 13 13 13 13 14 15 15 16 17 18 19 19 20 20 20 21 21 21 21 21 22 22 22 23 23 24 24 24 24 23 23 23 24 24 24 23 24 24 24 23 23 24 24
12 11 11 10 9 9 9 8 8 7 7 7 6 5 5 6 6 7 7 8 9 10 11 12 12 13 13 13 14 14 15 16 17 17 18 19 19 19 20 20 20 20 20 20 21 21 21 21 22 23 23 23 24 23 23 23 23 24 24 25 24 24 24 24 24 24 24 24 24
12 11 10 10 9 9 9 9 8 8 8 7 7 6 6 6 7 7 8 9 10 11 12 12 13 13 14 14 15 16 16 17 17 18 18 18 19 19 19 19 19 19 20 20 20 20 20 21 22 23 23 23 23 23 23 23 24 24 25 25 25 25 24 24 24 24 25 25 25
12 11 10 10 10 10 9 9 9 8 8 7 7 7 7 7 8 9 9 10 11 12 12 13 13 14 14 15 16 16 17 17 17 17 18 18 18 18 18 19 19 19 19 20 20 20 21 21 22 23 23 23 23 23 24 24 24 25 25 26 26 25 25 25 25 25 25 26 26
11 11 10 10 10 10 10 9 9 8 7 7 7 7 7 8 9 10 10 11 12 12 13 13 14 14 15 15 16 16 16 16 17 17 17 17 17 18 18 19 19 20 20 20 20 21 22 22 23 23 23 23 24 24 25 25 25 26 26 26 26 26 26 26 26 26 26 26 26
11 11 11 11 10 10 9 9 8 8 7 7 7 7 8 9 10 10 11 12 12 13 13 13 14 14 15 15 15 15 15 16 16 16 16 17 17 18 19 19 20 21 21 21 21 22 22 23 23 24 24 24 24 25 25 26 26 26 26 26 26 27 27 27 26 26 26 26 26
11 11 11 11 10 10 9 8 8 7 7 7 7 8 9 9 10 11 11 12 12 13 13 14 14 14 15 15 15 15 15 15 15 16 17 17 18 19 19 20 21 22 22 22 22 23 23 23 24 24 25 25 25 25 26 26 26 27 27 27 27 27 28 27 27 26 26 26 26
11 11 11 10 10 9 8 7 7 7 7 7 8 8 9 10 10 11 12 12 13 13 13 14 14 14 14 14 14 14 15 15 16 16 17 18 19 19 20 21 22 22 23 23 23 23 24 24 24 25 25 26 26 26 26 27 27 27 28 28 27 27 28 28 27 27 27 27 27
11 11 10 9 9 8 7 7 7 7 7 8 8 9 9 10 11 11 12 12 13 13 13 13 13 13 14 14 14 14 15 16 16 17 18 19 20 20 21 22 22 23 23 24 24 24 24 25 25 25 26 27 27 27 27 27 27 28 28 28 28 28 28 28 28 28 28 28 28
11 10 9 8 7 6 6 6 7 7 7 8 8 9 10 10 11 11 12 13 13 13 13 13 13 13 13 14 14 15 16 16 17 18 19 20 20 21 22 23 23 24 24 24 24 24 25 25 25 26 26 27 27 27 27 27 27 27 28 28 28 28 29 29 28 28 28 29 29
10 9 8 7 6 6 6 6 7 7 8 8 9 9 10 11 11 12 12 12 13 13 13 13 13 13 14 14 15 16 17 17 18 19 20 21 21 22 22 23 24 24 25 25 25 25 25 26 26 26 27 27 28 28 28 28 28 27 27 28 28 28 29 29 29 29 29 29 29
9 8 6 6 6 6 6 7 7 8 8 9 9 10 10 11 11 12 12 12 12 13 13 13 14 14 14 15 15 16 17 18 19 20 20 21 22 22 23 24 24 25 25 25 26 26 26 26 26 26 27 28 28 28 28 28 27 27 27 27 28 28 29 29 29 29 29 29 29
8 6 6 5 6 6 7 7 8 8 9 9 10 10 11 11 11 11 12 12 12 13 13 14 14 15 15 16 16 17 18 19 20 20 21 22 22 23 23 24 24 25 25 26 26 27 27 27 26 27 27 27 28 28 28 27 27 27 27 27 28 28 28 29 29 29 29 29 29
6 5 5 5 6 7 7 8 8 9 9 10 11 11 11 11 11 11 12 12 12 13 14 14 15 15 16 17 17 18 18 19 20 21 21 22 22 23 24 24 25 25 25 26 26 27 27 27 27 27 27 27 27 27 27 27 27 27 27 28 28 28 29 29 29 29 29 29 29
6 5 5 6 7 7 8 9 9 10 10 11 11 11 11 11 11 12 12 12 13 13 14 15 16 16 17 17 18 18 19 20 20 21 21 22 22 23 24 24 25 25 26 26 26 27 27 27 27 27 27 27 27 26 26 26 27 27 28 28 29 29 29 29 29 29 28 28 28
5 5 6 7 7 8 9 9 10 10 11 11 11 11 11 11 11 12 12 13 13 14 15 16 17 17 18 18 19 19 19 20 20 21 22 22 23 23 24 24 25 25 26 26 26 27 27 27 27 27 27 26 26 26 26 27 27 28 29 29 29 30 29 29 29 29 29 28 28
6 6 7 8 8 9 10 10 11 11 11 12 12 12 11 12 12 12 13 13 14 15 15 16 17 18 18 19 19 19 20 20 20 21 22 22 23 23 23 24 25 25 26 26 27 27 27 27 27 27 26 26 26 27 27 28 29 29 29 30 30 30 29 29 29 29 28 28 28
7 7 8 9 9 10 10 11 11 12 12 12 12 12 12 12 12 13 13 14 15 15 16 17 17 18 18 19 19 20 20 21 21 21 22 22 23 23 23 24 25 26 26 26 27 27 27 27 27 26 26 26 27 27 28 28 29 29 30 30 30 30 29 29 29 29 28 28 27
8 8 9 10 10 11 11 12 12 12 12 12 12 12 12 13 13 13 14 15 15 16 17 17 18 18 19 19 19 20 21 21 21 21 22 22 22 23 23 24 25 25 26 26 27 27 27 27 26 26 26 27 27 28 28 28 29 29 29 29 29 29 29 29 29 28 28 27 27
9 9 10 10 11 11 12 12 13 13 13 12 12 12 13 13 14 14 15 15 16 17 17 18 18 19 19 19 20 20 21 21 22 22 22 22 22 23 24 24 25 25 26 26 27 26 25 24 25 25 26 27 28 28 28 28 27 27 28 28 29 29 29 29 28 28 27 27 27
10 10 10 11 11 12 12 13 13 13 13 13 13 13 13 14 14 15 16 16 17 17 18 18 19 19 19 20 20 20 21 21 21 22 22 22 23 23 24 24 25 25 26 26 26 25 23 22 23 25 26 27 27 28 27 27 26 26 27 28 28 29 29 28 28 27 27 27 27
10 10 11 11 12 13 13 13 13 13 13 13 13 13 14 14 15 16 16 17 17 18 18 19 19 20 20 20 21 21 21 21 21 21 22 23 23 24 24 25 25 26 26 27 26 24 23 23 23 24 25 26 27 27 27 26 26 26 27 27 27 27 27 28 27 27 27 27 27
10 11 11 12 13 13 13 13 13 13 13 13 14 14 14 15 15 16 17 17 18 18 19 19 20 20 20 21 21 21 21 21 21 21 22 22 23 24 25 25 26 26 26 26 25 24 23 24 24 24 24 25 26 27 27 26 26 27 27 27 27 26 26 26 26 27 27 27 26
10 11 12 13 13 14 14 14 13 13 13 14 14 14 15 15 16 17 17 18 19 19 19 20 20 20 20 21 21 21 21 21 21 21 22 23 23 24 25 26 26 26 27 26 24 24 23 24 24 24 24 25 25 26 26 26 26 26 26 26 26 26 26 25 26 26 27 27 26
11 12 12 13 14 14 14 14 14 14 14 14 14 15 15 16 17 17 18 18 19 19 20 20 20 20 20 20 20 20 21 21 21 22 22 23 24 25 25 26 26 27 27 26 24 24 23 24 24 24 24 24 25 25 25 25 25 26 26 25 25 25 26 26 26 27 26 26 25
11 12 13 13 14 14 14 14 14 14 14 14 15 15 16 17 17 18 18 19 19 19 20 20 20 20 20 20 20 21 21 21 22 22 23 24 24 25 26 26 27 27 27 26 24 23 23 24 24 24 25 25 25 25 25 25 25 25 25 25 25 26 26 26 27 26 25 24 24
12 12 13 14 14 15 15 14 14 14 14 15 15 16 17 17 18 18 19 19 19 20 20 20 20 20 20 20 20 21 21 22 22 23 23 24 25 25 26 26 27 27 27 26 24 23 23 24 24 25 25 25 25 25 25 25 25 25 25 25 26 26 26 26 25 24 23 23 23
12 13 14 14 15 15 15 15 14 15 15 15 16 17 17 18 18 19 19 19 20 20 20 20 20 21 21 21 21 21 22 22 23 23 24 24 25 26 26 27 27 27 26 25 23 23 23 24 24 25 25 25 25 25 25 25 25 25 25 25 25 26 25 24 23 23 22 23 24
13 14 14 15 15 15 15 15 15 15 16 16 17 17 18 18 19 19 20 20 20 20 20 20 20 20 21 21 21 22 22 23 23 24 24 25 25 26 27 27 27 27 26 24 23 23 23 24 24 24 24 24 24 24 24 25 24 25 25 25 25 24 24 23 23 23 24 25 26
14 14 15 15 15 15 15 15 15 16 16 17 17 18 18 19 19 20 20 20 20 20 20 20 20 20 20 21 21 22 23 23 24 24 25 25 26 26 27 27 27 27 26 24 23 23 23 24 24 24 24 24 24 24 24 24 24 24 24 24 24 23 23 23 24 25 26 27 29
14 15 15 15 15 16 16 16 16 16 17 17 18 18 19 19 20 20 20 20 21 21 21 21 20 20 21 21 21 22 23 24 24 25 25 26 26 26 27 27 28 27 26 24 23 23 23 23 24 24 24 23 23 23 23 24 24 24 24 24 23 23 24 24 25 27 28 28 29
15 15 15 15 16 16 16 16 16 17 17 18 19 19 19 20 20 21 21 21 21 21 21 21 21 21 21 21 22 22 23 24 25 25 26 26 26 27 27 28 28 27 26 25 23 23 23 23 23 23 23 23 22 23 23 23 23 23 23 24 24 24 25 26 27 27 28 29 30
15 15 15 15 16 16 16 17 17 18 18 19 19 19 20 20 21 21 21 21 21 21 21 21 21 21 22 22 23 23 24 24 25 26 26 26 26 27 27 28 28 27 26 25 23 23 22 22 22 22 22 22 22 22 23 23 23 23 23 24 25 25 26 26 27 28 29 30 31
15 15 15 15 16 16 17 17 18 18 19 19 20 20 20 21 21 21 21 21 21 21 21 21 22 22 22 23 23 24 24 25 25 26 27 27 27 27 27 27 27 27 26 25 24 23 22 22 22 21 21 21 21 22 22 22 22 23 24 25 26 27 27 27 28 29 30 30 30
14 15 15 16 16 17 17 18 18 19 19 20 20 20 20 21 21 22 22 21 21 21 21 22 22 23 23 23 24 25 25 26 26 26 27 27 27 27 26 26 27 26 26 25 24 22 21 21 21 20 20 20 21 21 21 22 22 23 24 25 26 27 27 27 28 29 30 30 29
15 15 16 16 17 17 18 18 19 19 20 20 20 21 21 21 22 22 22 22 21 21 21 22 23 23 23 24 24 25 26 26 27 27 27 27 27 27 26 26 26 26 25 24 23 22 21 20 20 19 19 20 20 20 21 22 23 24 25 25 26 27 27 28 28 28 28 28 28
15 16 16 17 17 18 19 19 20 20 20 20 20 21 21 22 22 23 22 22 22 22 22 23 23 24 24 24 24 25 26 27 28 28 28 28 27 27 26 26 26 26 25 23 22 21 20 19 19 19 19 19 20 20 21 22 23 24 24 25 26 27 27 27 27 27 26 25 26
Wind_Direction
203 208 215 224 234 244 249 252 256 260 266 274 281 288 293 296 299 305 310 314 318 322 325 326 326 327 327 328 328 327 326 325 324 323 322 321 319 317 315 313 310 308 307 305 304 304 304 306 308 310 311 312 314 314 315 317 319 320 320 320 320 319 318 316 314 313 312 310 309
208 214 220 229 238 245 248 251 255 260 266 272 278 283 285 288 292 297 305 313 318 320 322 324 325 327 328 328 328 327 326 324 322 320 318 316 314 312 310 307 305 303 302 302 302 303 305 308 310 311 313 314 315 316 317 318 320 321 322 321 320 319 317 315 313 312 311 310 308
211 217 224 232 239 244 246 248 251 256 260 266 270 273 276 279 285 293 302 310 314 317 319 322 325 326 327 327 326 325 323 321 319 316 314 312 310 308 306 304 302 301 301 302 303 305 308 310 312 313 314 316 317 318 319 320 322 323 323 321 320 318 316 314 312 311 310 309 308
214 219 226 233 238 241 244 245 248 252 255 259 261 264 267 274 282 290 298 305 311 315 318 321 323 324 324 323 322 321 319 317 315 313 311 309 307 305 304 303 302 303 303 305 307 309 311 312 314 315 317 318 320 321 322 323 323 323 321 319 318 316 314 313 312 311 310 308 307
215 220 227 233 237 239 241 243 245 247 250 252 253 255 262 272 281 289 297 305 311 315 318 320 321 321 320 319 317 316 314 313 311 310 308 307 306 305 304 304 305 306 307 309 310 312 314 315 316 317 318 320 321 322 323 323 323 322 319 318 317 315 314 313 312 311 310 308 307
215 220 226 232 236 237 238 240 242 244 245 247 248 254 264 275 285 294 302 307 311 313 316 317 317 317 316 314 313 311 310 309 308 308 307 307 306 307 307 308 309 310 311 313 314 315 317 318 318 319 320 321 322 322 322 323 322 320 318 317 316 315 315 313 313 312 311 309 308
214 219 224 229 232 234 236 238 239 241 243 247 252 261 273 283 293 300 305 308 310 312 314 314 314 313 312 311 309 308 307 307 307 307 308 308 309 310 311 313 313 315 316 317 318 319 320 321 321 321 321 322 322 321 322 322 320 319 317 317 316 316 315 314 314 313 311 310 308
213 218 222 227 230 232 234 236 238 240 245 251 260 271 282 292 299 303 305 307 309 310 311 311 310 309 308 306 306 306 306 307 307 309 310 311 313 314 316 318 319 320 321 322 322 323 323 322 322 322 321 321 321 320 320 320 320 319 318 317 317 317 316 315 314 313 312 310 309
212 217 222 225 228 230 231 234 237 242 249 258 269 280 289 295 300 303 305 306 307 308 307 307 306 304 303 303 304 305 306 308 310 312 313 315 317 319 321 323 323 324 325 325 325 325 324 323 322 321 321 321 320 319 319 320 320 319 318 317 317 316 316 316 315 314 313 311 309
212 216 220 223 225 227 229 234 240 247 256 266 276 284 291 296 299 301 302 302 302 303 302 302 300 300 300 301 303 306 308 311 313 314 316 318 321 323 324 325 326 326 326 327 327 326 325 323 322 321 321 321 320 319 320 320 320 319 318 317 316 316 315 316 315 315 313 311 309
212 216 218 219 222 225 230 236 243 253 262 272 280 286 291 295 296 297 298 297 298 297 297 297 297 298 299 301 305 307 310 313 314 316 318 320 322 323 324 325 326 326 326 327 327 326 325 323 322 321 321 321 320 320 320 320 320 318 317 317 316 315 314 314 315 315 313 312 310
211 213 215 217 221 226 232 239 248 258 267 275 281 286 289 291 293 293 293 293 292 292 293 294 295 297 300 303 306 309 312 314 315 317 318 320 322 323 324 324 325 326 326 327 327 326 325 323 322 321 321 321 321 320 320 320 319 318 316 316 315 314 313 313 314 314 314 312 310
208 209 211 215 220 227 235 245 254 262 270 275 279 281 285 287 288 288 289 289 288 289 291 293 295 298 301 304 307 310 312 314 315 316 317 319 320 321 322 323 325 325 326 326 326 326 324 323 322 322 321 320 320 320 320 319 318 316 315 315 314 313 312 312 314 314 314 313 311
204 205 209 214 221 230 239 249 258 264 268 272 274 278 280 283 284 285 286 286 287 289 291 293 296 299 302 305 308 310 312 314 315 316 316 318 319 320 321 323 324 325 325 326 326 325 324 323 323 322 321 320 320 320 320 319 317 315 314 313 312 312 311 312 313 313 313 312 310
199 202 207 214 223 234 244 252 258 262 266 270 273 275 278 281 282 284 285 286 287 289 292 295 298 301 303 306 309 311 312 313 314 315 315 317 318 319 321 322 323 324 325 325 324 324 323 323 322 322 321 320 319 319 318 318 316 315 313 312 312 311 311 312 312 312 311 310 309
196 200 208 217 228 239 247 254 259 262 266 270 273 275 278 280 282 283 285 287 289 292 294 296 299 302 305 307 310 311 312 312 313 314 314 316 317 319 320 321 322 323 324 324 324 323 323 323 322 321 320 319 318 317 317 316 315 314 313 312 311 311 311 311 311 310 309 308 307
195 202 211 224 235 245 251 256 260 264 268 271 273 276 278 280 282 284 287 289 292 295 296 298 300 303 306 308 310 311 311 311 312 313 314 315 317 318 319 320 322 323 323 323 322 322 322 322 322 321 320 318 317 316 316 315 314 313 312 311 310 310 310 310 309 309 308 307 305
197 208 221 233 243 250 256 260 263 267 269 272 273 276 279 281 283 286 288 292 294 296 298 299 302 304 306 308 310 311 311 311 312 312 313 315 316 318 319 320 321 322 322 322 321 321 321 321 321 320 319 318 316 315 315 314 312 312 311 310 310 309 309 309 309 308 307 306 305
203 219 235 246 254 258 261 264 266 268 270 272 273 276 279 282 285 288 290 293 295 297 298 300 302 305 306 308 309 310 310 311 311 312 314 315 316 318 319 320 321 321 321 321 320 320 320 320 320 319 318 317 316 314 313 313 312 311 310 310 309 308 308 308 308 308 307 306 305
216 235 249 258 262 265 265 266 267 268 270 272 275 277 280 283 286 289 292 294 296 297 299 301 303 305 307 308 309 309 311 311 312 313 314 316 317 318 319 320 321 320 320 320 320 320 320 319 319 318 317 316 315 314 313 312 311 311 310 309 308 307 307 307 307 307 306 305 304
229 245 256 264 267 268 268 267 268 269 271 273 276 279 281 284 287 290 292 294 296 297 299 301 303 305 307 308 310 310 312 313 313 314 316 317 318 319 320 321 320 320 320 319 319 319 319 319 319 318 317 315 314 313 313 312 311 310 310 308 307 307 307 306 306 306 305 304 304
236 249 260 266 269 269 269 269 269 270 272 274 277 280 282 285 288 290 292 294 296 298 300 302 304 306 308 310 311 312 313 314 315 316 317 318 319 320 321 321 320 319 319 319 319 320 320 319 318 317 316 315 313 312 312 311 310 309 308 307 306 306 306 306 305 305 304 304 304
241 252 261 267 269 269 270 270 271 272 274 276 278 280 283 285 288 290 292 294 297 299 302 304 306 308 310 312 313 313 314 315 316 317 318 319 320 320 321 320 319 319 318 319 320 320 320 319 317 316 314 313 312 311 311 310 309 308 306 306 305 305 304 304 304 304 304 304 304
244 254 261 266 269 270 271 271 273 274 275 277 279 281 284 286 288 290 293 295 298 301 304 307 308 310 312 313 313 314 315 317 318 319 320 321 321 321 320 320 319 318 318 319 320 320 318 315 314 313 312 311 310 309 309 308 307 305 304 303 303 303 303 303 303 303 303 304 304
246 255 262 267 269 271 272 273 274 275 276 278 280 282 284 287 289 291 294 297 301 304 307 309 311 312 313 314 314 315 317 318 319 320 321 321 321 320 320 319 318 318 318 319 320 318 315 311 310 310 309 309 308 308 307 306 304 303 302 302 302 302 302 302 302 302 302 303 303
249 258 264 268 271 272 273 274 274 275 277 279 281 283 286 288 290 293 297 300 303 307 309 311 312 313 314 315 315 316 318 320 320 321 320 320 320 319 319 318 318 318 319 319 319 317 313 310 309 309 308 308 308 308 307 305 304 303 302 302 301 301 301 301 302 302 302 302 302
254 261 266 270 272 273 273 274 275 276 278 280 282 284 286 289 292 296 299 303 306 308 310 312 313 314 315 315 316 317 319 320 321 320 320 319 318 318 318 318 318 318 319 319 318 315 312 310 309 309 309 308 308 308 307 306 305 304 303 302 301 301 301 301 302 302 302 302 301
259 265 269 272 273 274 274 275 276 277 279 281 283 285 287 291 294 298 302 305 307 309 311 312 314 314 315 316 317 318 319 319 320 319 319 318 318 317 317 318 318 318 319 318 316 313 311 310 309 309 309 309 308 308 307 306 305 304 303 302 301 301 301 301 302 302 302 301 301
264 269 272 274 274 275 275 275 276 278 280 282 283 286 289 293 296 300 303 306 308 310 312 313 314 314 315 316 317 317 318 318 319 319 319 318 317 317 317 317 317 318 318 317 315 313 311 310 310 310 310 310 309 308 307 305 304 303 302 302 301 301 302 302 302 302 301 301 301
268 273 275 276 276 275 275 276 277 279 280 282 284 287 291 295 298 302 305 307 309 311 313 314 314 314 314 315 316 317 317 318 319 319 318 317 317 317 317 317 317 317 317 317 315 313 311 310 310 310 310 310 309 308 306 305 304 303 302 302 302 302 303 302 302 302 302 302 303
272 276 278 278 277 276 276 277 278 279 280 283 285 289 293 297 300 303 306 308 310 312 313 313 313 313 314 315 315 316 317 318 318 318 317 317 316 316 316 316 316 316 316 316 315 312 311 311 311 311 311 310 310 308 306 305 304 303 303 302 302 303 303 303 302 302 303 304 306
276 279 280 279 278 277 276 277 278 279 281 284 287 291 294 298 302 305 307 309 311 312 312 312 312 313 314 315 315 316 317 317 317 317 317 316 316 315 315 315 315 315 316 316 313 312 311 311 311 311 311 311 310 308 306 305 305 304 303 302 302 303 303 303 303 303 304 306 307
280 281 281 279 278 276 276 277 278 280 282 285 288 292 296 300 303 306 308 310 311 311 312 312 312 313 313 314 315 315 315 316 316 316 316 315 315 314 314 313 313 314 315 314 313 311 311 311 311 311 311 311 310 308 307 306 305 304 303 302 302 303 303 303 304 305 306 307 308
282 282 280 278 276 276 276 277 278 281 284 287 290 294 298 302 304 307 309 310 311 311 311 311 311 312 312 312 313 313 314 314 315 315 315 315 314 313 313 312 312 313 314 314 312 311 311 311 311 312 312 312 310 309 307 307 306 304 304 303 304 304 304 304 305 306 307 307 307
282 280 279 276 275 275 276 278 280 283 285 289 293 297 300 303 305 308 310 311 311 311 310 310 310 310 311 311 312 312 312 313 313 314 314 314 313 312 311 311 312 313 314 313 312 311 311 311 311 312 312 311 310 309 308 307 306 305 305 305 305 305 305 306 306 306 306 306 305
280 278 277 276 275 276 278 280 282 285 288 291 295 299 302 304 307 309 310 311 310 310 309 309 309 309 309 310 310 311 311 311 312 312 313 313 312 311 310 310 312 313 315 314 313 312 311 311 311 312 312 311 310 309 308 308 307 307 307 307 306 306 306 307 306 306 306 305 304
277 276 275 275 276 278 280 282 285 287 290 294 297 301 303 306 308 309 310 310 310 309 309 309 308 308 309 309 310 310 310 311 310 311 311 311 311 310 310 310 311 312 314 315 314 311 310 310 310 311 311 311 310 310 309 309 308 308 308 308 307 307 307 306 306 305 304 304 304
275 274 275 276 278 280 282 284 287 289 292 296 300 303 305 307 308 309 309 309 309 308 308 307 307 307 308 309 309 309 309 309 309 309 309 309 310 310 309 309 309 311 313 314 313 311 310 309 309 310 310 310 310 310 310 310 309 309 308 307 307 306 306 306 305 304 304 303 303
273 274 276 278 280 282 285 287 289 292 295 298 302 304 306 307 308 308 308 308 307 307 306 306 306 307 308 309 308 307 307 308 308 308 308 308 309 309 308 307 307 309 311 313 313 312 310 308 308 309 309 309 310 310 311 310 310 309 308 307 306 306 306 305 304 303 302 302 302
274 276 278 280 283 285 287 289 291 294 298 300 303 305 306 307 307 307 307 307 307 306 306 305 305 307 308 307 306 305 305 306 307 307 307 307 308 308 307 306 306 308 310 313 314 313 310 308 307 308 308 309 310 310 311 311 310 309 307 307 306 305 305 305 304 302 300 299 301
276 278 281 283 285 287 289 292 294 297 300 302 303 305 306 306 306 306 307 307 306 306 305 305 305 306 306 306 305 304 304 305 305 306 307 308 308 308 307 306 307 308 310 313 314 313 310 307 306 306 308 309 310 310 310 310 310 308 306 306 306 305 304 303 302 301 299 298 300